Surplus Liquidation-NY #18653

Mobile 135 Kw Generator

Bidding is closed.
High Bid:$3,100.00
NA
Bidding Ended: Tue, Aug 20  8:10:13 pm ET
High Bidder: Lewbob
Bid Increment: $50.00
Starting Bid: $10.00
Item Location: 4 Reddington Street, Bay Shore, Suffolk, NY 11706
Item has been viewed 1,734 times.
Twitter Google Email Pinterest Facebook

Magnamax Synchronous AC Generator with Trailer

Model #431R6L4005

Serial #LM-2436460803

Cummins diesel motor, 22 amps, 55 volts, 135 Kw generator

Trailer is a 1997 CWI, VIN 1C9BA1229V1271431

Hours-159

Bill of Sale Only for Trailer

Works excellent.

**VIDEO ATTACHED**

***Please review all Auction terms at left side of auction before bidding***

Terms of Sale:
All sales are final. No refunds will be issued. This item is being sold as is, where is, with no warranty, expressed written or implied. The seller shall not be responsible for the correct description, authenticity, genuineness, or defects herein, and makes no warranty in connection therewith. No allowance or set aside will be made on account of any incorrectness, imperfection, defect or damage. Any descriptions or representations are for identification purposes only and are not to be construed as a warranty of any type. It is the responsibility of the buyer to have thoroughly inspected this item and to have satisfied himself or herself as to the condition and value and to bid based upon that judgment solely. The seller shall and will make every reasonable effort to disclose any known defects associated with this item at the buyer request prior to the close of sale. Seller assumes no responsibility for any repairs regardless of any oral statements about the item. Seller is NOT responsible for providing tools or heavy equipment to aid in removal. Items left on seller premises after this removal deadline will revert back to possession of the seller, with no refund.


Click on any picture to see a larger image.
Bid Date Bid Amount Bidder
Aug 20, 2019 - 8:09:13 PM $3,100.00 iLewbob
Aug 20, 2019 - 7:42:16 PM $3,050.00 i631help
Aug 20, 2019 - 7:42:02 PM $3,000.00 iOwencharles
Aug 20, 2019 - 7:42:03 PM $3,000.00 i631help
Aug 20, 2019 - 7:09:23 PM $2,950.00 iOwencharles
Aug 20, 2019 - 7:08:50 PM $2,900.00 i631help
Aug 20, 2019 - 7:08:51 PM $2,900.00 iOwencharles
Aug 20, 2019 - 6:54:35 PM $2,850.00 i631help
Aug 20, 2019 - 6:54:16 PM $2,800.00 iOwencharles
Aug 20, 2019 - 6:54:17 PM $2,800.00 i631help
Aug 20, 2019 - 6:40:13 PM $2,750.00 iOwencharles
Aug 20, 2019 - 6:40:13 PM $2,700.00 i631help
Aug 20, 2019 - 6:36:11 PM $2,650.00 i631help
Aug 20, 2019 - 6:36:11 PM $2,600.00 iOwencharles
Aug 20, 2019 - 6:26:58 PM $2,550.00 iOwencharles
Aug 20, 2019 - 6:26:46 PM $2,500.00 i631help
Aug 20, 2019 - 6:26:47 PM $2,500.00 iOwencharles
Aug 20, 2019 - 6:26:33 PM $2,425.00 i631help
Aug 20, 2019 - 6:26:33 PM $2,400.00 iOwencharles
Aug 20, 2019 - 6:25:07 PM $2,225.00 i631help
Aug 20, 2019 - 6:25:07 PM $2,200.00 iOwencharles
Aug 20, 2019 - 5:24:00 PM $2,125.00 iOwencharles
Aug 20, 2019 - 5:24:00 PM $2,100.00 i631help
Aug 20, 2019 - 5:16:21 PM $2,025.00 i631help
Aug 20, 2019 - 5:16:21 PM $2,000.00 iOwencharles
Aug 20, 2019 - 5:16:13 PM $1,850.00 iOwencharles
Aug 20, 2019 - 5:16:13 PM $1,825.00 i631help
Aug 20, 2019 - 5:16:03 PM $1,800.00 iOwencharles
Aug 20, 2019 - 5:16:03 PM $1,775.00 i631help
Aug 20, 2019 - 2:39:45 PM $1,750.00 iOwencharles
Aug 17, 2019 - 4:47:51 AM $1,725.00 i631help
Aug 17, 2019 - 4:47:48 AM $1,700.00 iNAPAMike
Aug 17, 2019 - 4:47:49 AM $1,700.00 i631help
Aug 17, 2019 - 4:47:43 AM $1,675.00 iNAPAMike
Aug 17, 2019 - 4:47:43 AM $1,650.00 i631help
Aug 17, 2019 - 4:47:39 AM $1,625.00 iNAPAMike
Aug 17, 2019 - 4:47:39 AM $1,600.00 i631help
Aug 17, 2019 - 4:47:35 AM $1,575.00 iNAPAMike
Aug 17, 2019 - 4:47:35 AM $1,550.00 i631help
Aug 17, 2019 - 4:47:30 AM $1,525.00 iNAPAMike
Aug 17, 2019 - 4:47:30 AM $1,500.00 i631help
Aug 17, 2019 - 4:47:26 AM $1,475.00 iNAPAMike
Aug 17, 2019 - 4:47:26 AM $1,450.00 i631help
Aug 17, 2019 - 4:47:22 AM $1,425.00 iNAPAMike
Aug 17, 2019 - 4:47:22 AM $1,400.00 i631help
Aug 17, 2019 - 4:47:18 AM $1,375.00 iNAPAMike
Aug 17, 2019 - 4:47:18 AM $1,350.00 i631help
Aug 17, 2019 - 4:47:14 AM $1,325.00 iNAPAMike
Aug 17, 2019 - 4:47:14 AM $1,300.00 i631help
Aug 17, 2019 - 4:47:10 AM $1,275.00 iNAPAMike
Aug 17, 2019 - 4:47:10 AM $1,250.00 i631help
Aug 17, 2019 - 4:47:05 AM $1,225.00 iNAPAMike
Aug 17, 2019 - 4:47:05 AM $1,200.00 i631help
Aug 17, 2019 - 4:46:59 AM $1,175.00 iNAPAMike
Aug 17, 2019 - 4:46:59 AM $1,150.00 i631help
Aug 16, 2019 - 11:19:01 PM $1,125.00 iNAPAMike
Aug 16, 2019 - 11:19:01 PM $1,100.00 i631help
Aug 16, 2019 - 4:31:38 AM $1,075.00 i631help
Aug 16, 2019 - 4:31:38 AM $1,050.00 iBelleyes
Aug 16, 2019 - 4:31:24 AM $1,025.00 iBelleyes
Aug 16, 2019 - 4:31:24 AM $1,000.00 i631help
Aug 16, 2019 - 4:31:11 AM $910.00 iBelleyes
Aug 16, 2019 - 4:31:11 AM $900.00 i631help
Aug 15, 2019 - 7:19:33 PM $710.00 iBelleyes
Aug 15, 2019 - 7:19:33 PM $700.00 iFazil Atuk
Aug 13, 2019 - 7:35:28 AM $520.00 iFazil Atuk
Aug 11, 2019 - 11:10:28 PM $510.00 iagar4654
Aug 11, 2019 - 11:10:28 PM $500.00 ibobbyo694
Aug 11, 2019 - 11:09:52 PM $390.00 ibobbyo694
Aug 11, 2019 - 11:09:52 PM $380.00 iagar4654
Aug 11, 2019 - 8:56:47 PM $360.00 ibobbyo694
Aug 11, 2019 - 8:56:47 PM $350.00 ijunkhorder
Aug 11, 2019 - 4:25:38 PM $130.00 ibobbyo694
Aug 11, 2019 - 4:25:38 PM $125.00 ievdeals
Aug 9, 2019 - 10:45:52 PM $105.00 ievdeals
Aug 9, 2019 - 10:45:52 PM $100.00 isamsisi4
Aug 9, 2019 - 10:45:43 PM $21.00 ievdeals
Aug 9, 2019 - 10:45:43 PM $20.00 isamsisi4
Aug 9, 2019 - 10:45:31 PM $13.00 ievdeals
Aug 9, 2019 - 10:45:31 PM $12.00 isamsisi4
Aug 9, 2019 - 10:45:17 PM $11.00 ievdeals
Aug 9, 2019 - 7:25:48 PM $10.00 icapitolhill